owner,sensor,date,latitude,longitude,vertical_datum,sea_water_practical_salinity,qcFlag 
ENP,ioos.station.NOAA.NDBC:BOBF1:1,2019-04-01T00:00:00Z,25.0270,-80.6810,1.5,38.53,1111122 
ENP,ioos.station.NOAA.NDBC:BOBF1:1,2019-04-01T01:00:00Z,25.0270,-80.6810,1.5,38.63,1111122 
ENP,ioos.station.NOAA.NDBC:BOBF1:1,2019-04-01T02:00:00Z,25.0270,-80.6810,1.5,38.7,1111122 
ENP,ioos.station.NOAA.NDBC:BOBF1:1,2019-04-01T04:00:00Z,25.0270,-80.6810,1.5,38.73,1111122 
ENP,ioos.station.NOAA.NDBC:BOBF1:1,2019-04-01T06:00:00Z,25.0270,-80.6810,1.5,38.57,1111122 
ENP,ioos.station.NOAA.NDBC:BOBF1:1,2019-04-01T07:00:00Z,25.0270,-80.6810,1.5,38.63,1111122 
ENP,ioos.station.NOAA.NDBC:BOBF1:1,2019-04-01T08:00:00Z,25.0270,-80.6810,1.5,38.57,1111122 
ENP,ioos.station.NOAA.NDBC:BOBF1:1,2019-04-01T09:00:00Z,25.0270,-80.6810,1.5,38.53,1111122 
ENP,ioos.station.NOAA.NDBC:BOBF1:1,2019-04-01T10:00:00Z,25.0270,-80.6810,1.5,38.48,1111122 
ENP,ioos.station.NOAA.NDBC:BOBF1:1,2019-04-01T11:00:00Z,25.0270,-80.6810,1.5,38.57,1111122 
ENP,ioos.station.NOAA.NDBC:BOBF1:1,2019-04-01T12:00:00Z,25.0270,-80.6810,1.5,38.49,1111122 
ENP,ioos.station.NOAA.NDBC:BOBF1:1,2019-04-01T13:00:00Z,25.0270,-80.6810,1.5,38.5,1111122 
ENP,ioos.station.NOAA.NDBC:BOBF1:1,2019-04-01T14:00:00Z,25.0270,-80.6810,1.5,38.49,1111122 
ENP,ioos.station.NOAA.NDBC:BOBF1:1,2019-04-01T15:00:00Z,25.0270,-80.6810,1.5,38.51,1111122 
ENP,ioos.station.NOAA.NDBC:BOBF1:1,2019-04-01T16:00:00Z,25.0270,-80.6810,1.5,38.48,1111122 
ENP,ioos.station.NOAA.NDBC:BOBF1:1,2019-04-01T17:00:00Z,25.0270,-80.6810,1.5,38.58,1111122 
ENP,ioos.station.NOAA.NDBC:BOBF1:1,2019-04-01T18:00:00Z,25.0270,-80.6810,1.5,38.46,1111122 
ENP,ioos.station.NOAA.NDBC:BOBF1:1,2019-04-01T19:00:00Z,25.0270,-80.6810,1.5,38.53,1111122 
ENP,ioos.station.NOAA.NDBC:BOBF1:1,2019-04-01T20:00:00Z,25.0270,-80.6810,1.5,38.75,1111122 
ENP,ioos.station.NOAA.NDBC:BOBF1:1,2019-04-01T21:00:00Z,25.0270,-80.6810,1.5,38.63,1111122 
ENP,ioos.station.NOAA.NDBC:BOBF1:1,2019-04-01T22:00:00Z,25.0270,-80.6810,1.5,38.44,1111122 
ENP,ioos.station.NOAA.NDBC:BOBF1:1,2019-04-01T23:00:00Z,25.0270,-80.6810,1.5,38.45,1111122 
ENP,ioos.station.NOAA.NDBC:BOBF1:1,2019-04-02T00:00:00Z,25.0270,-80.6810,1.5,38.51,1111122 
ENP,ioos.station.NOAA.NDBC:BOBF1:1,2019-04-02T01:00:00Z,25.0270,-80.6810,1.5,38.56,1111122 
ENP,ioos.station.NOAA.NDBC:BOBF1:1,2019-04-02T04:00:00Z,25.0270,-80.6810,1.5,38.65,1111122 
ENP,ioos.station.NOAA.NDBC:BOBF1:1,2019-04-02T05:00:00Z,25.0270,-80.6810,1.5,38.68,1111122 
ENP,ioos.station.NOAA.NDBC:BOBF1:1,2019-04-02T06:00:00Z,25.0270,-80.6810,1.5,38.68,1111122 
ENP,ioos.station.NOAA.NDBC:BOBF1:1,2019-04-02T07:00:00Z,25.0270,-80.6810,1.5,38.64,1111122 
ENP,ioos.station.NOAA.NDBC:BOBF1:1,2019-04-02T08:00:00Z,25.0270,-80.6810,1.5,38.59,1111122 
ENP,ioos.station.NOAA.NDBC:BOBF1:1,2019-04-02T09:00:00Z,25.0270,-80.6810,1.5,38.6,1111122 
ENP,ioos.station.NOAA.NDBC:BOBF1:1,2019-04-02T10:00:00Z,25.0270,-80.6810,1.5,38.69,1111122 
ENP,ioos.station.NOAA.NDBC:BOBF1:1,2019-04-02T11:00:00Z,25.0270,-80.6810,1.5,38.71,1111122 
ENP,ioos.station.NOAA.NDBC:BOBF1:1,2019-04-02T12:00:00Z,25.0270,-80.6810,1.5,38.69,1111122 
ENP,ioos.station.NOAA.NDBC:BOBF1:1,2019-04-02T13:00:00Z,25.0270,-80.6810,1.5,38.69,1111122 
ENP,ioos.station.NOAA.NDBC:BOBF1:1,2019-04-02T14:00:00Z,25.0270,-80.6810,1.5,38.67,1111122 
ENP,ioos.station.NOAA.NDBC:BOBF1:1,2019-04-02T15:00:00Z,25.0270,-80.6810,1.5,38.68,1111122 
ENP,ioos.station.NOAA.NDBC:BOBF1:1,2019-04-02T16:00:00Z,25.0270,-80.6810,1.5,38.84,1111122 
ENP,ioos.station.NOAA.NDBC:BOBF1:1,2019-04-02T18:00:00Z,25.0270,-80.6810,1.5,38.71,1111122 
ENP,ioos.station.NOAA.NDBC:BOBF1:1,2019-04-02T19:00:00Z,25.0270,-80.6810,1.5,38.72,1111122 
ENP,ioos.station.NOAA.NDBC:BOBF1:1,2019-04-02T20:00:00Z,25.0270,-80.6810,1.5,38.85,1111122 
ENP,ioos.station.NOAA.NDBC:BOBF1:1,2019-04-02T21:00:00Z,25.0270,-80.6810,1.5,38.87,1111122 
ENP,ioos.station.NOAA.NDBC:BOBF1:1,2019-04-02T23:00:00Z,25.0270,-80.6810,1.5,38.72,1111122 
ENP,ioos.station.NOAA.NDBC:BOBF1:1,2019-04-03T00:00:00Z,25.0270,-80.6810,1.5,38.75,1111122 
ENP,ioos.station.NOAA.NDBC:BOBF1:1,2019-04-03T02:00:00Z,25.0270,-80.6810,1.5,38.77,1111122 
ENP,ioos.station.NOAA.NDBC:BOBF1:1,2019-04-03T04:00:00Z,25.0270,-80.6810,1.5,38.88,1111122 
ENP,ioos.station.NOAA.NDBC:BOBF1:1,2019-04-03T06:00:00Z,25.0270,-80.6810,1.5,38.95,1111122 
ENP,ioos.station.NOAA.NDBC:BOBF1:1,2019-04-03T07:00:00Z,25.0270,-80.6810,1.5,38.99,1111122 
ENP,ioos.station.NOAA.NDBC:BOBF1:1,2019-04-03T08:00:00Z,25.0270,-80.6810,1.5,38.99,1111122 
ENP,ioos.station.NOAA.NDBC:BOBF1:1,2019-04-03T09:00:00Z,25.0270,-80.6810,1.5,39.01,1111122 
ENP,ioos.station.NOAA.NDBC:BOBF1:1,2019-04-03T10:00:00Z,25.0270,-80.6810,1.5,39.0,1111122 
ENP,ioos.station.NOAA.NDBC:BOBF1:1,2019-04-03T11:00:00Z,25.0270,-80.6810,1.5,38.92,1111122 
ENP,ioos.station.NOAA.NDBC:BOBF1:1,2019-04-03T12:00:00Z,25.0270,-80.6810,1.5,39.07,1111122 
ENP,ioos.station.NOAA.NDBC:BOBF1:1,2019-04-03T13:00:00Z,25.0270,-80.6810,1.5,39.48,1111122 
ENP,ioos.station.NOAA.NDBC:BOBF1:1,2019-04-03T14:00:00Z,25.0270,-80.6810,1.5,38.99,1111122 
ENP,ioos.station.NOAA.NDBC:BOBF1:1,2019-04-03T15:00:00Z,25.0270,-80.6810,1.5,39.12,1111122 
ENP,ioos.station.NOAA.NDBC:BOBF1:1,2019-04-03T16:00:00Z,25.0270,-80.6810,1.5,39.05,1111122 
ENP,ioos.station.NOAA.NDBC:BOBF1:1,2019-04-03T17:00:00Z,25.0270,-80.6810,1.5,38.99,1111122 
ENP,ioos.station.NOAA.NDBC:BOBF1:1,2019-04-03T18:00:00Z,25.0270,-80.6810,1.5,38.82,1111122 
ENP,ioos.station.NOAA.NDBC:BOBF1:1,2019-04-03T19:00:00Z,25.0270,-80.6810,1.5,38.69,1111122 
ENP,ioos.station.NOAA.NDBC:BOBF1:1,2019-04-03T20:00:00Z,25.0270,-80.6810,1.5,38.49,1111122 
ENP,ioos.station.NOAA.NDBC:BOBF1:1,2019-04-03T21:00:00Z,25.0270,-80.6810,1.5,38.3,1111122 
ENP,ioos.station.NOAA.NDBC:BOBF1:1,2019-04-03T22:00:00Z,25.0270,-80.6810,1.5,38.17,1111122 
ENP,ioos.station.NOAA.NDBC:BOBF1:1,2019-04-03T23:00:00Z,25.0270,-80.6810,1.5,38.09,1111122 
ENP,ioos.station.NOAA.NDBC:BOBF1:1,2019-04-04T00:00:00Z,25.0270,-80.6810,1.5,38.0,1111122 
ENP,ioos.station.NOAA.NDBC:BOBF1:1,2019-04-04T01:00:00Z,25.0270,-80.6810,1.5,37.93,1111122 
ENP,ioos.station.NOAA.NDBC:BOBF1:1,2019-04-04T02:00:00Z,25.0270,-80.6810,1.5,37.89,1111122 
ENP,ioos.station.NOAA.NDBC:BOBF1:1,2019-04-04T04:00:00Z,25.0270,-80.6810,1.5,38.18,1111122 
ENP,ioos.station.NOAA.NDBC:BOBF1:1,2019-04-04T06:00:00Z,25.0270,-80.6810,1.5,38.29,1111122 
ENP,ioos.station.NOAA.NDBC:BOBF1:1,2019-04-04T07:00:00Z,25.0270,-80.6810,1.5,38.11,1111122 
ENP,ioos.station.NOAA.NDBC:BOBF1:1,2019-04-04T08:00:00Z,25.0270,-80.6810,1.5,38.01,1111122 
ENP,ioos.station.NOAA.NDBC:BOBF1:1,2019-04-04T09:00:00Z,25.0270,-80.6810,1.5,37.94,1111122 
ENP,ioos.station.NOAA.NDBC:BOBF1:1,2019-04-04T10:00:00Z,25.0270,-80.6810,1.5,37.92,1111122 
ENP,ioos.station.NOAA.NDBC:BOBF1:1,2019-04-04T11:00:00Z,25.0270,-80.6810,1.5,37.89,1111122 
ENP,ioos.station.NOAA.NDBC:BOBF1:1,2019-04-04T12:00:00Z,25.0270,-80.6810,1.5,37.9,1111122 
ENP,ioos.station.NOAA.NDBC:BOBF1:1,2019-04-04T13:00:00Z,25.0270,-80.6810,1.5,37.86,1111122 
ENP,ioos.station.NOAA.NDBC:BOBF1:1,2019-04-04T14:00:00Z,25.0270,-80.6810,1.5,38.03,1111122 
ENP,ioos.station.NOAA.NDBC:BOBF1:1,2019-04-04T15:00:00Z,25.0270,-80.6810,1.5,38.02,1111122 
ENP,ioos.station.NOAA.NDBC:BOBF1:1,2019-04-04T16:00:00Z,25.0270,-80.6810,1.5,38.11,1111122 
ENP,ioos.station.NOAA.NDBC:BOBF1:1,2019-04-04T17:00:00Z,25.0270,-80.6810,1.5,38.18,1111122 
ENP,ioos.station.NOAA.NDBC:BOBF1:1,2019-04-04T18:00:00Z,25.0270,-80.6810,1.5,38.23,1111122 
ENP,ioos.station.NOAA.NDBC:BOBF1:1,2019-04-04T19:00:00Z,25.0270,-80.6810,1.5,38.2,1111122 
ENP,ioos.station.NOAA.NDBC:BOBF1:1,2019-04-04T20:00:00Z,25.0270,-80.6810,1.5,37.95,1111122 
ENP,ioos.station.NOAA.NDBC:BOBF1:1,2019-04-04T21:00:00Z,25.0270,-80.6810,1.5,37.77,1111122 
ENP,ioos.station.NOAA.NDBC:BOBF1:1,2019-04-04T22:00:00Z,25.0270,-80.6810,1.5,37.64,1111122 
ENP,ioos.station.NOAA.NDBC:BOBF1:1,2019-04-04T23:00:00Z,25.0270,-80.6810,1.5,37.84,1111122 
ENP,ioos.station.NOAA.NDBC:BOBF1:1,2019-04-05T00:00:00Z,25.0270,-80.6810,1.5,37.85,1111122 
ENP,ioos.station.NOAA.NDBC:BOBF1:1,2019-04-05T01:00:00Z,25.0270,-80.6810,1.5,37.78,1111122 
ENP,ioos.station.NOAA.NDBC:BOBF1:1,2019-04-05T02:00:00Z,25.0270,-80.6810,1.5,37.78,1111122 
ENP,ioos.station.NOAA.NDBC:BOBF1:1,2019-04-05T04:00:00Z,25.0270,-80.6810,1.5,38.41,1111122 
ENP,ioos.station.NOAA.NDBC:BOBF1:1,2019-04-05T06:00:00Z,25.0270,-80.6810,1.5,38.78,1111122 
ENP,ioos.station.NOAA.NDBC:BOBF1:1,2019-04-05T07:00:00Z,25.0270,-80.6810,1.5,38.9,1111122 
ENP,ioos.station.NOAA.NDBC:BOBF1:1,2019-04-05T08:00:00Z,25.0270,-80.6810,1.5,38.87,1111122 
ENP,ioos.station.NOAA.NDBC:BOBF1:1,2019-04-05T09:00:00Z,25.0270,-80.6810,1.5,38.69,1111122 
ENP,ioos.station.NOAA.NDBC:BOBF1:1,2019-04-05T10:00:00Z,25.0270,-80.6810,1.5,38.6,1111122 
ENP,ioos.station.NOAA.NDBC:BOBF1:1,2019-04-05T11:00:00Z,25.0270,-80.6810,1.5,38.58,1111122 
ENP,ioos.station.NOAA.NDBC:BOBF1:1,2019-04-05T12:00:00Z,25.0270,-80.6810,1.5,38.47,1111122 
ENP,ioos.station.NOAA.NDBC:BOBF1:1,2019-04-05T13:00:00Z,25.0270,-80.6810,1.5,38.54,1111122 
ENP,ioos.station.NOAA.NDBC:BOBF1:1,2019-04-05T14:00:00Z,25.0270,-80.6810,1.5,38.4,1111122 
ENP,ioos.station.NOAA.NDBC:BOBF1:1,2019-04-05T15:00:00Z,25.0270,-80.6810,1.5,38.3,1111122 
ENP,ioos.station.NOAA.NDBC:BOBF1:1,2019-04-05T16:00:00Z,25.0270,-80.6810,1.5,38.5,1111122 
ENP,ioos.station.NOAA.NDBC:BOBF1:1,2019-04-05T17:00:00Z,25.0270,-80.6810,1.5,38.72,1111122 
ENP,ioos.station.NOAA.NDBC:BOBF1:1,2019-04-05T18:00:00Z,25.0270,-80.6810,1.5,38.81,1111122 
ENP,ioos.station.NOAA.NDBC:BOBF1:1,2019-04-05T19:00:00Z,25.0270,-80.6810,1.5,38.8,1111122 
ENP,ioos.station.NOAA.NDBC:BOBF1:1,2019-04-05T20:00:00Z,25.0270,-80.6810,1.5,38.8,1111122 
ENP,ioos.station.NOAA.NDBC:BOBF1:1,2019-04-05T21:00:00Z,25.0270,-80.6810,1.5,38.71,1111122 
ENP,ioos.station.NOAA.NDBC:BOBF1:1,2019-04-05T22:00:00Z,25.0270,-80.6810,1.5,38.72,1111122 
ENP,ioos.station.NOAA.NDBC:BOBF1:1,2019-04-05T23:00:00Z,25.0270,-80.6810,1.5,38.69,1111122 
ENP,ioos.station.NOAA.NDBC:BOBF1:1,2019-04-06T00:00:00Z,25.0270,-80.6810,1.5,38.68,1111122 
ENP,ioos.station.NOAA.NDBC:BOBF1:1,2019-04-06T01:00:00Z,25.0270,-80.6810,1.5,38.69,1111122 
ENP,ioos.station.NOAA.NDBC:BOBF1:1,2019-04-06T02:00:00Z,25.0270,-80.6810,1.5,38.68,1111122 
ENP,ioos.station.NOAA.NDBC:BOBF1:1,2019-04-06T04:00:00Z,25.0270,-80.6810,1.5,38.9,1111122 
ENP,ioos.station.NOAA.NDBC:BOBF1:1,2019-04-06T06:00:00Z,25.0270,-80.6810,1.5,39.16,1111122 
ENP,ioos.station.NOAA.NDBC:BOBF1:1,2019-04-06T07:00:00Z,25.0270,-80.6810,1.5,39.23,1111122 
ENP,ioos.station.NOAA.NDBC:BOBF1:1,2019-04-06T08:00:00Z,25.0270,-80.6810,1.5,39.15,1111122 
ENP,ioos.station.NOAA.NDBC:BOBF1:1,2019-04-06T09:00:00Z,25.0270,-80.6810,1.5,39.0,1111122 
ENP,ioos.station.NOAA.NDBC:BOBF1:1,2019-04-06T10:00:00Z,25.0270,-80.6810,1.5,38.99,1111122 
ENP,ioos.station.NOAA.NDBC:BOBF1:1,2019-04-06T11:00:00Z,25.0270,-80.6810,1.5,38.95,1111122 
ENP,ioos.station.NOAA.NDBC:BOBF1:1,2019-04-06T12:00:00Z,25.0270,-80.6810,1.5,38.93,1111122 
ENP,ioos.station.NOAA.NDBC:BOBF1:1,2019-04-06T13:00:00Z,25.0270,-80.6810,1.5,38.94,1111122 
ENP,ioos.station.NOAA.NDBC:BOBF1:1,2019-04-06T14:00:00Z,25.0270,-80.6810,1.5,38.99,1111122 
ENP,ioos.station.NOAA.NDBC:BOBF1:1,2019-04-06T15:00:00Z,25.0270,-80.6810,1.5,39.04,1111122 
ENP,ioos.station.NOAA.NDBC:BOBF1:1,2019-04-06T16:00:00Z,25.0270,-80.6810,1.5,39.13,1111122 
ENP,ioos.station.NOAA.NDBC:BOBF1:1,2019-04-06T18:00:00Z,25.0270,-80.6810,1.5,39.21,1111122 
ENP,ioos.station.NOAA.NDBC:BOBF1:1,2019-04-06T19:00:00Z,25.0270,-80.6810,1.5,39.08,1111122 
ENP,ioos.station.NOAA.NDBC:BOBF1:1,2019-04-06T20:00:00Z,25.0270,-80.6810,1.5,39.05,1111122 
ENP,ioos.station.NOAA.NDBC:BOBF1:1,2019-04-06T21:00:00Z,25.0270,-80.6810,1.5,38.93,1111122 
ENP,ioos.station.NOAA.NDBC:BOBF1:1,2019-04-06T22:00:00Z,25.0270,-80.6810,1.5,38.6,1111122 
ENP,ioos.station.NOAA.NDBC:BOBF1:1,2019-04-06T23:00:00Z,25.0270,-80.6810,1.5,38.48,1111122 
ENP,ioos.station.NOAA.NDBC:BOBF1:1,2019-04-07T00:00:00Z,25.0270,-80.6810,1.5,38.49,1111122 
ENP,ioos.station.NOAA.NDBC:BOBF1:1,2019-04-07T01:00:00Z,25.0270,-80.6810,1.5,38.51,1111122 
ENP,ioos.station.NOAA.NDBC:BOBF1:1,2019-04-07T02:00:00Z,25.0270,-80.6810,1.5,38.46,1111122 
ENP,ioos.station.NOAA.NDBC:BOBF1:1,2019-04-07T03:00:00Z,25.0270,-80.6810,1.5,38.48,1111122 
ENP,ioos.station.NOAA.NDBC:BOBF1:1,2019-04-11T18:00:00Z,25.0270,-80.6810,1.5,38.27,1111122 
ENP,ioos.station.NOAA.NDBC:BOBF1:1,2019-04-11T19:00:00Z,25.0270,-80.6810,1.5,38.22,1111122 
ENP,ioos.station.NOAA.NDBC:BOBF1:1,2019-04-11T20:00:00Z,25.0270,-80.6810,1.5,38.15,1111122 
ENP,ioos.station.NOAA.NDBC:BOBF1:1,2019-04-11T21:00:00Z,25.0270,-80.6810,1.5,38.13,1111122 
ENP,ioos.station.NOAA.NDBC:BOBF1:1,2019-04-11T22:00:00Z,25.0270,-80.6810,1.5,38.16,1111122 
ENP,ioos.station.NOAA.NDBC:BOBF1:1,2019-04-11T23:00:00Z,25.0270,-80.6810,1.5,38.17,1111122 
ENP,ioos.station.NOAA.NDBC:BOBF1:1,2019-04-12T00:00:00Z,25.0270,-80.6810,1.5,38.18,1111122 
ENP,ioos.station.NOAA.NDBC:BOBF1:1,2019-04-12T01:00:00Z,25.0270,-80.6810,1.5,38.23,1111122 
ENP,ioos.station.NOAA.NDBC:BOBF1:1,2019-04-12T02:00:00Z,25.0270,-80.6810,1.5,38.28,1111122 
ENP,ioos.station.NOAA.NDBC:BOBF1:1,2019-04-12T04:00:00Z,25.0270,-80.6810,1.5,38.26,1111122 
ENP,ioos.station.NOAA.NDBC:BOBF1:1,2019-04-12T05:00:00Z,25.0270,-80.6810,1.5,38.27,1111122 
ENP,ioos.station.NOAA.NDBC:BOBF1:1,2019-04-12T06:00:00Z,25.0270,-80.6810,1.5,38.28,1111122 
ENP,ioos.station.NOAA.NDBC:BOBF1:1,2019-04-12T07:00:00Z,25.0270,-80.6810,1.5,38.33,1111122 
ENP,ioos.station.NOAA.NDBC:BOBF1:1,2019-04-12T08:00:00Z,25.0270,-80.6810,1.5,38.46,1111122 
ENP,ioos.station.NOAA.NDBC:BOBF1:1,2019-04-12T09:00:00Z,25.0270,-80.6810,1.5,38.33,1111122 
ENP,ioos.station.NOAA.NDBC:BOBF1:1,2019-04-12T10:00:00Z,25.0270,-80.6810,1.5,38.14,1111122 
ENP,ioos.station.NOAA.NDBC:BOBF1:1,2019-04-12T11:00:00Z,25.0270,-80.6810,1.5,38.15,1111122 
ENP,ioos.station.NOAA.NDBC:BOBF1:1,2019-04-12T12:00:00Z,25.0270,-80.6810,1.5,38.5,1111122 
ENP,ioos.station.NOAA.NDBC:BOBF1:1,2019-04-12T13:00:00Z,25.0270,-80.6810,1.5,38.25,1111122 
ENP,ioos.station.NOAA.NDBC:BOBF1:1,2019-04-12T14:00:00Z,25.0270,-80.6810,1.5,38.16,1111122 
ENP,ioos.station.NOAA.NDBC:BOBF1:1,2019-04-12T15:00:00Z,25.0270,-80.6810,1.5,38.04,1111122 
ENP,ioos.station.NOAA.NDBC:BOBF1:1,2019-04-12T16:00:00Z,25.0270,-80.6810,1.5,38.03,1111122 
ENP,ioos.station.NOAA.NDBC:BOBF1:1,2019-04-12T17:00:00Z,25.0270,-80.6810,1.5,38.03,1111122 
ENP,ioos.station.NOAA.NDBC:BOBF1:1,2019-04-12T18:00:00Z,25.0270,-80.6810,1.5,38.03,1111122 
ENP,ioos.station.NOAA.NDBC:BOBF1:1,2019-04-12T19:00:00Z,25.0270,-80.6810,1.5,38.04,1111122 
ENP,ioos.station.NOAA.NDBC:BOBF1:1,2019-04-12T20:00:00Z,25.0270,-80.6810,1.5,38.02,1111122 
ENP,ioos.station.NOAA.NDBC:BOBF1:1,2019-04-12T21:00:00Z,25.0270,-80.6810,1.5,38.0,1111122 
ENP,ioos.station.NOAA.NDBC:BOBF1:1,2019-04-12T22:00:00Z,25.0270,-80.6810,1.5,38.03,1111122 
ENP,ioos.station.NOAA.NDBC:BOBF1:1,2019-04-12T23:00:00Z,25.0270,-80.6810,1.5,38.05,1111122 
ENP,ioos.station.NOAA.NDBC:BOBF1:1,2019-04-13T00:00:00Z,25.0270,-80.6810,1.5,38.07,1111122 
ENP,ioos.station.NOAA.NDBC:BOBF1:1,2019-04-13T01:00:00Z,25.0270,-80.6810,1.5,38.18,1111122 
ENP,ioos.station.NOAA.NDBC:BOBF1:1,2019-04-13T02:00:00Z,25.0270,-80.6810,1.5,38.11,1111122 
ENP,ioos.station.NOAA.NDBC:BOBF1:1,2019-04-13T04:00:00Z,25.0270,-80.6810,1.5,37.93,1111122 
ENP,ioos.station.NOAA.NDBC:BOBF1:1,2019-04-13T05:00:00Z,25.0270,-80.6810,1.5,37.9,1111122 
ENP,ioos.station.NOAA.NDBC:BOBF1:1,2019-04-13T06:00:00Z,25.0270,-80.6810,1.5,37.91,1111122 
ENP,ioos.station.NOAA.NDBC:BOBF1:1,2019-04-13T07:00:00Z,25.0270,-80.6810,1.5,37.92,1111122 
ENP,ioos.station.NOAA.NDBC:BOBF1:1,2019-04-13T08:00:00Z,25.0270,-80.6810,1.5,37.91,1111122 
ENP,ioos.station.NOAA.NDBC:BOBF1:1,2019-04-13T09:00:00Z,25.0270,-80.6810,1.5,37.93,1111122 
ENP,ioos.station.NOAA.NDBC:BOBF1:1,2019-04-13T10:00:00Z,25.0270,-80.6810,1.5,38.04,1111122 
ENP,ioos.station.NOAA.NDBC:BOBF1:1,2019-04-13T11:00:00Z,25.0270,-80.6810,1.5,38.06,1111122 
ENP,ioos.station.NOAA.NDBC:BOBF1:1,2019-04-13T12:00:00Z,25.0270,-80.6810,1.5,38.06,1111122 
ENP,ioos.station.NOAA.NDBC:BOBF1:1,2019-04-13T13:00:00Z,25.0270,-80.6810,1.5,38.07,1111122 
ENP,ioos.station.NOAA.NDBC:BOBF1:1,2019-04-13T14:00:00Z,25.0270,-80.6810,1.5,38.22,1111122 
ENP,ioos.station.NOAA.NDBC:BOBF1:1,2019-04-13T15:00:00Z,25.0270,-80.6810,1.5,38.05,1111122 
ENP,ioos.station.NOAA.NDBC:BOBF1:1,2019-04-13T16:00:00Z,25.0270,-80.6810,1.5,37.95,1111122 
ENP,ioos.station.NOAA.NDBC:BOBF1:1,2019-04-13T17:00:00Z,25.0270,-80.6810,1.5,37.94,1111122 
ENP,ioos.station.NOAA.NDBC:BOBF1:1,2019-04-13T18:00:00Z,25.0270,-80.6810,1.5,37.93,1111122 
ENP,ioos.station.NOAA.NDBC:BOBF1:1,2019-04-13T19:00:00Z,25.0270,-80.6810,1.5,37.95,1111122 
ENP,ioos.station.NOAA.NDBC:BOBF1:1,2019-04-13T20:00:00Z,25.0270,-80.6810,1.5,38.0,1111122 
ENP,ioos.station.NOAA.NDBC:BOBF1:1,2019-04-13T21:00:00Z,25.0270,-80.6810,1.5,37.9,1111122 
ENP,ioos.station.NOAA.NDBC:BOBF1:1,2019-04-13T22:00:00Z,25.0270,-80.6810,1.5,37.96,1111122 
ENP,ioos.station.NOAA.NDBC:BOBF1:1,2019-04-13T23:00:00Z,25.0270,-80.6810,1.5,38.03,1111122 
ENP,ioos.station.NOAA.NDBC:BOBF1:1,2019-04-14T00:00:00Z,25.0270,-80.6810,1.5,38.13,1111122 
ENP,ioos.station.NOAA.NDBC:BOBF1:1,2019-04-14T01:00:00Z,25.0270,-80.6810,1.5,38.21,1111122 
ENP,ioos.station.NOAA.NDBC:BOBF1:1,2019-04-14T02:00:00Z,25.0270,-80.6810,1.5,38.21,1111122 
ENP,ioos.station.NOAA.NDBC:BOBF1:1,2019-04-14T04:00:00Z,25.0270,-80.6810,1.5,38.07,1111122 
ENP,ioos.station.NOAA.NDBC:BOBF1:1,2019-04-14T05:00:00Z,25.0270,-80.6810,1.5,38.04,1111122 
ENP,ioos.station.NOAA.NDBC:BOBF1:1,2019-04-14T06:00:00Z,25.0270,-80.6810,1.5,38.04,1111122 
ENP,ioos.station.NOAA.NDBC:BOBF1:1,2019-04-14T07:00:00Z,25.0270,-80.6810,1.5,38.0,1111122 
ENP,ioos.station.NOAA.NDBC:BOBF1:1,2019-04-14T08:00:00Z,25.0270,-80.6810,1.5,37.99,1111122 
ENP,ioos.station.NOAA.NDBC:BOBF1:1,2019-04-14T09:00:00Z,25.0270,-80.6810,1.5,38.0,1111122 
ENP,ioos.station.NOAA.NDBC:BOBF1:1,2019-04-14T10:00:00Z,25.0270,-80.6810,1.5,38.09,1111122 
ENP,ioos.station.NOAA.NDBC:BOBF1:1,2019-04-14T11:00:00Z,25.0270,-80.6810,1.5,38.06,1111122 
ENP,ioos.station.NOAA.NDBC:BOBF1:1,2019-04-14T12:00:00Z,25.0270,-80.6810,1.5,38.09,1111122 
ENP,ioos.station.NOAA.NDBC:BOBF1:1,2019-04-14T13:00:00Z,25.0270,-80.6810,1.5,38.06,1111122 
ENP,ioos.station.NOAA.NDBC:BOBF1:1,2019-04-14T14:00:00Z,25.0270,-80.6810,1.5,38.15,1111122 
ENP,ioos.station.NOAA.NDBC:BOBF1:1,2019-04-14T15:00:00Z,25.0270,-80.6810,1.5,38.05,1111122 
ENP,ioos.station.NOAA.NDBC:BOBF1:1,2019-04-14T16:00:00Z,25.0270,-80.6810,1.5,38.04,1111122 
ENP,ioos.station.NOAA.NDBC:BOBF1:1,2019-04-14T17:00:00Z,25.0270,-80.6810,1.5,38.29,1111122 
ENP,ioos.station.NOAA.NDBC:BOBF1:1,2019-04-14T18:00:00Z,25.0270,-80.6810,1.5,38.29,1111122 
ENP,ioos.station.NOAA.NDBC:BOBF1:1,2019-04-14T19:00:00Z,25.0270,-80.6810,1.5,38.24,1111122 
ENP,ioos.station.NOAA.NDBC:BOBF1:1,2019-04-14T20:00:00Z,25.0270,-80.6810,1.5,38.15,1111122 
ENP,ioos.station.NOAA.NDBC:BOBF1:1,2019-04-14T21:00:00Z,25.0270,-80.6810,1.5,38.04,1111122 
ENP,ioos.station.NOAA.NDBC:BOBF1:1,2019-04-14T22:00:00Z,25.0270,-80.6810,1.5,38.15,1111122 
ENP,ioos.station.NOAA.NDBC:BOBF1:1,2019-04-14T23:00:00Z,25.0270,-80.6810,1.5,38.43,1111122 
ENP,ioos.station.NOAA.NDBC:BOBF1:1,2019-04-15T00:00:00Z,25.0270,-80.6810,1.5,38.56,1111122 
ENP,ioos.station.NOAA.NDBC:BOBF1:1,2019-04-15T02:00:00Z,25.0270,-80.6810,1.5,38.67,1111122 
ENP,ioos.station.NOAA.NDBC:BOBF1:1,2019-04-15T04:00:00Z,25.0270,-80.6810,1.5,38.61,1111122 
ENP,ioos.station.NOAA.NDBC:BOBF1:1,2019-04-15T05:00:00Z,25.0270,-80.6810,1.5,38.61,1111122 
ENP,ioos.station.NOAA.NDBC:BOBF1:1,2019-04-15T06:00:00Z,25.0270,-80.6810,1.5,38.46,1111122 
ENP,ioos.station.NOAA.NDBC:BOBF1:1,2019-04-15T07:00:00Z,25.0270,-80.6810,1.5,38.44,1111122 
ENP,ioos.station.NOAA.NDBC:BOBF1:1,2019-04-15T08:00:00Z,25.0270,-80.6810,1.5,38.43,1111122 
ENP,ioos.station.NOAA.NDBC:BOBF1:1,2019-04-15T09:00:00Z,25.0270,-80.6810,1.5,38.5,1111122 
ENP,ioos.station.NOAA.NDBC:BOBF1:1,2019-04-15T10:00:00Z,25.0270,-80.6810,1.5,38.48,1111122 
ENP,ioos.station.NOAA.NDBC:BOBF1:1,2019-04-15T11:00:00Z,25.0270,-80.6810,1.5,38.68,1111122 
ENP,ioos.station.NOAA.NDBC:BOBF1:1,2019-04-15T12:00:00Z,25.0270,-80.6810,1.5,38.39,1111122 
ENP,ioos.station.NOAA.NDBC:BOBF1:1,2019-04-15T13:00:00Z,25.0270,-80.6810,1.5,38.36,1111122 
ENP,ioos.station.NOAA.NDBC:BOBF1:1,2019-04-15T14:00:00Z,25.0270,-80.6810,1.5,38.36,1111122 
ENP,ioos.station.NOAA.NDBC:BOBF1:1,2019-04-15T15:00:00Z,25.0270,-80.6810,1.5,38.44,1111122 
ENP,ioos.station.NOAA.NDBC:BOBF1:1,2019-04-15T16:00:00Z,25.0270,-80.6810,1.5,38.39,1111122 
ENP,ioos.station.NOAA.NDBC:BOBF1:1,2019-04-15T17:00:00Z,25.0270,-80.6810,1.5,38.28,1111122 
ENP,ioos.station.NOAA.NDBC:BOBF1:1,2019-04-15T18:00:00Z,25.0270,-80.6810,1.5,38.47,1111122 
ENP,ioos.station.NOAA.NDBC:BOBF1:1,2019-04-15T19:00:00Z,25.0270,-80.6810,1.5,38.34,1111122 
ENP,ioos.station.NOAA.NDBC:BOBF1:1,2019-04-15T20:00:00Z,25.0270,-80.6810,1.5,38.21,1111122 
ENP,ioos.station.NOAA.NDBC:BOBF1:1,2019-04-15T21:00:00Z,25.0270,-80.6810,1.5,38.17,1111122 
ENP,ioos.station.NOAA.NDBC:BOBF1:1,2019-04-15T22:00:00Z,25.0270,-80.6810,1.5,38.42,1111122 
ENP,ioos.station.NOAA.NDBC:BOBF1:1,2019-04-15T23:00:00Z,25.0270,-80.6810,1.5,38.33,1111122 
ENP,ioos.station.NOAA.NDBC:BOBF1:1,2019-04-16T00:00:00Z,25.0270,-80.6810,1.5,38.16,1111122 
ENP,ioos.station.NOAA.NDBC:BOBF1:1,2019-04-16T01:00:00Z,25.0270,-80.6810,1.5,38.21,1111122 
ENP,ioos.station.NOAA.NDBC:BOBF1:1,2019-04-16T02:00:00Z,25.0270,-80.6810,1.5,38.29,1111122 
ENP,ioos.station.NOAA.NDBC:BOBF1:1,2019-04-16T04:00:00Z,25.0270,-80.6810,1.5,38.57,1111122 
ENP,ioos.station.NOAA.NDBC:BOBF1:1,2019-04-16T05:00:00Z,25.0270,-80.6810,1.5,38.53,1111122 
ENP,ioos.station.NOAA.NDBC:BOBF1:1,2019-04-16T06:00:00Z,25.0270,-80.6810,1.5,38.54,1111122 
ENP,ioos.station.NOAA.NDBC:BOBF1:1,2019-04-16T07:00:00Z,25.0270,-80.6810,1.5,38.63,1111122 
ENP,ioos.station.NOAA.NDBC:BOBF1:1,2019-04-16T08:00:00Z,25.0270,-80.6810,1.5,38.57,1111122 
ENP,ioos.station.NOAA.NDBC:BOBF1:1,2019-04-16T09:00:00Z,25.0270,-80.6810,1.5,38.56,1111122 
ENP,ioos.station.NOAA.NDBC:BOBF1:1,2019-04-16T10:00:00Z,25.0270,-80.6810,1.5,38.53,1111122 
ENP,ioos.station.NOAA.NDBC:BOBF1:1,2019-04-16T11:00:00Z,25.0270,-80.6810,1.5,38.51,1111122 
ENP,ioos.station.NOAA.NDBC:BOBF1:1,2019-04-16T12:00:00Z,25.0270,-80.6810,1.5,38.52,1111122 
ENP,ioos.station.NOAA.NDBC:BOBF1:1,2019-04-16T13:00:00Z,25.0270,-80.6810,1.5,38.51,1111122 
ENP,ioos.station.NOAA.NDBC:BOBF1:1,2019-04-16T14:00:00Z,25.0270,-80.6810,1.5,38.51,1111122 
ENP,ioos.station.NOAA.NDBC:BOBF1:1,2019-04-16T15:00:00Z,25.0270,-80.6810,1.5,38.51,1111122 
ENP,ioos.station.NOAA.NDBC:BOBF1:1,2019-04-16T16:00:00Z,25.0270,-80.6810,1.5,38.54,1111122 
ENP,ioos.station.NOAA.NDBC:BOBF1:1,2019-04-16T17:00:00Z,25.0270,-80.6810,1.5,38.5,1111122 
ENP,ioos.station.NOAA.NDBC:BOBF1:1,2019-04-16T18:00:00Z,25.0270,-80.6810,1.5,38.32,1111122 
ENP,ioos.station.NOAA.NDBC:BOBF1:1,2019-04-16T19:00:00Z,25.0270,-80.6810,1.5,38.13,11111222 
ENP,ioos.station.NOAA.NDBC:BOBF1:1,2019-04-16T20:00:00Z,25.0270,-80.6810,1.5,38.11,11111222 
ENP,ioos.station.NOAA.NDBC:BOBF1:1,2019-04-17T00:00:00Z,25.0270,-80.6810,1.5,38.1,11111222 
ENP,ioos.station.NOAA.NDBC:BOBF1:1,2019-04-17T01:00:00Z,25.0270,-80.6810,1.5,38.15,11111222 
ENP,ioos.station.NOAA.NDBC:BOBF1:1,2019-04-17T02:00:00Z,25.0270,-80.6810,1.5,38.47,11111222 
ENP,ioos.station.NOAA.NDBC:BOBF1:1,2019-04-17T04:00:00Z,25.0270,-80.6810,1.5,38.49,11111222 
ENP,ioos.station.NOAA.NDBC:BOBF1:1,2019-04-17T05:00:00Z,25.0270,-80.6810,1.5,38.7,11111222 
ENP,ioos.station.NOAA.NDBC:BOBF1:1,2019-04-17T08:00:00Z,25.0270,-80.6810,1.5,38.43,11111222 
ENP,ioos.station.NOAA.NDBC:BOBF1:1,2019-04-17T09:00:00Z,25.0270,-80.6810,1.5,38.36,11111222 
ENP,ioos.station.NOAA.NDBC:BOBF1:1,2019-04-17T10:00:00Z,25.0270,-80.6810,1.5,38.34,11111222 
ENP,ioos.station.NOAA.NDBC:BOBF1:1,2019-04-17T11:00:00Z,25.0270,-80.6810,1.5,38.32,11111222 
ENP,ioos.station.NOAA.NDBC:BOBF1:1,2019-04-17T12:00:00Z,25.0270,-80.6810,1.5,38.3,11111222 
ENP,ioos.station.NOAA.NDBC:BOBF1:1,2019-04-17T13:00:00Z,25.0270,-80.6810,1.5,38.3,11111222 